Hourly Data Report for September 05, 2017

All times are specified in Local Standard Time (LST). Add 1 hour to adjust for Daylight Saving Time where and when it is observed.

CHARLOTTETOWN A
PRINCE EDWARD ISLAND

46°17'21.000" N
63°07'09.000" W
48.50 m
8300301
71706
YYG

Download Data

Hourly Data (September 2017)
Hourly Data Report for September 5, 2017
Temp Definition
°C
Dew Point Temp Definition
°C
Rel Hum Definition
%
Wind Dir Definition
10's deg

Wind Spd Definition
km/h
Visibility Definition
km
Stn Press Definition
kPa
Hmdx Definition


Wind Chill Definition


Weather Definition


TIME
00:00 Legend Double Dagger 15.1 12.3 83 20 19 24.1 100.34     LegendNANA
01:00 Legend Double Dagger 14.9 12.1 83 24 10 24.1 100.33     LegendNANA
02:00 Legend Double Dagger 15.6 12.4 81 22 16 24.1 100.35     Mainly Clear
03:00 Legend Double Dagger 15.3 12.7 84 21 18 24.1 100.37     LegendNANA
04:00 Legend Double Dagger 14.6 12.6 88 18 16 24.1 100.37     LegendNANA
05:00 Legend Double Dagger 14.9 13.2 89 18 21 24.1 100.39     Mainly Clear
06:00 Legend Double Dagger 15.1 13.5 90 18 22 24.1 100.36     LegendNANA
07:00 Legend Double Dagger 15.8 13.6 87 18 25 24.1 100.40     LegendNANA
08:00 Legend Double Dagger 16.4 13.3 82 19 26 24.1 100.38     Mostly Cloudy
09:00 Legend Double Dagger 17.4 14.1 81 19 26 24.1 100.38     LegendNANA
10:00 Legend Double Dagger 19.2 14.6 74 20 29 24.1 100.35     LegendNANA
11:00 Legend Double Dagger 21.1 14.9 67 19 28 24.1 100.37 25   Mostly Cloudy
12:00 Legend Double Dagger 23.1 15.2 61 22 30 24.1 100.34 27   LegendNANA
13:00 Legend Double Dagger 23.5 15.1 59 20 36 24.1 100.38 28   LegendNANA
14:00 Legend Double Dagger 24.3 15.9 59 22 30 24.1 100.36 29   Mostly Cloudy
15:00 Legend Double Dagger 24.5 16.6 61 22 29 24.1 100.37 30   LegendNANA
16:00 Legend Double Dagger 24.0 16.9 64 22 18 24.1 100.41 29   LegendNANA
17:00 Legend Double Dagger 23.7 16.8 65 20 23 24.1 100.43 29   Cloudy
18:00 Legend Double Dagger 21.8 16.7 72 20 20 24.1 100.48 27   LegendNANA
19:00 Legend Double Dagger 20.4 16.6 78 18 18 19.3 100.52 25   LegendNANA
20:00 Legend Double Dagger 19.8 16.5 81 19 15 24.1 100.60     Clear
21:00 Legend Double Dagger 19.2 16.9 86 18 20 24.1 100.64     LegendNANA
22:00 Legend Double Dagger 18.6 16.8 89 18 20 24.1 100.66     LegendNANA
23:00 Legend Double Dagger 18.9 17.0 89 19 23 24.1 100.69     Clear

Notes on Data Quality.

Legend

  • E = Estimated
  • M = Missing
  • NA = Not Available
  • ‡ = Partner data that is not subject to review by the National Climate Archives
Date modified: